{"data":{"norad_id":43576,"epoch":"2026-09-20T03:24:42.388128Z","epoch_age_seconds":46245,"freshness":"FRESH","line1":"1 43576U 18061H   26263.14215727  .00000108  00000+0  31364-4 0  9998","line2":"2 43576  86.4008  17.0173 0002117  91.2561 268.8878 14.34216505426984","mean_motion":14.34216505,"eccentricity":0.0002117,"inclination_deg":86.4008,"raan_deg":17.0173,"arg_perigee_deg":91.2561,"mean_anomaly_deg":268.8878,"bstar":3.1364e-5,"rev_number":42698,"period_min":100.40325118138,"perigee_km":776.15641089493,"apogee_km":779.18618012725,"semimajor_km":7155.8082955111,"source":"CELESTRAK","updated_at":"2026-09-20T09:00:36.354304Z"}}